User: anonymous
Location: Unspecified
(0.0000°N, 0.0000°E)
Time: 07:57:34
(UTC+02:00)
Language:

Cosmos 1626 Rocket - Orbit

View from above orbital plane
View from above orbital plane
View from above satellite
View from above satellite

Ground track
Ground track

The orbit data is extracted from the following two-line orbital elements,

1 15495U 85009B   14203.80611816  .00000140  00000-0  14170-4 0  8325
2 15495 082.5251 100.4349 0019521 223.6659 136.3012 14.83244517592743
Epoch (UTC): 22 July 2014 19:20:48
Eccentricity: 0.0019521
inclination: 82.5251°
perigee height: 605 km
apogee height: 633 km
right ascension of ascending node: 100.4349°
argument of perigee: 223.6659°
revolutions per day: 14.83244517
mean anomaly at epoch: 136.3012°
orbit number at epoch: 59274

The dashed part of the orbit path shows where the satellite is in the earth's shadow,  

DLR